Meteo Giornale » Osservazioni meteo Italia » Genova-Sestri

ore: 19:50 - Osservazioni Meteo Genova-Sestri
Lat. 44° 25' N Lon. 8° 51' E Alt. 2 metri s.l.m.

poco_nuvoloso

26 °C

Poco Nuvoloso

Temp. 24 Ore

23 °C

27 °C

Sud-Est

9.3 Km/h

Dew point 22 °C

Umidità 78 %

Visibilità  10 Km

Il sole sorge alle ore 06:46

Il sole tramonta alle ore 20:03

Data e Ora Cielo e Fenomeni T °C DP °C Um. % Pres. hPa Vis. km Vento km/h
Oggi h: 19:50 poco_nuvoloso Poco Nuvoloso 26 22 78 1014 10 SE 9.3
Oggi h: 19:20 poco_nuvoloso Poco Nuvoloso 27 22 74 1014 10 S/SE 7.4
Oggi h: 18:50 poco_nuvoloso Poco Nuvoloso 27 22 74 1014 10 S/SE 7.4
Oggi h: 17:50 poco_nuvoloso Poco Nuvoloso 27 23 78 1015 10 N 5.5
Oggi h: 17:20 nuvoloso Nuvoloso 27 22 74 1015 10 S 7.4
Oggi h: 16:50 poco_nuvoloso Poco Nuvoloso 27 22 74 1015 10 S/SE 7.4
Oggi h: 09:20 nuvoloso Nuvoloso 26 19 65 1015 10 E 7.4
Oggi h: 08:50 nuvoloso Nuvoloso 25 19 69 1015 10 NE 9.3
Oggi h: 08:20 nuvoloso Nuvoloso 24 19 73 1015 10 E/NE 13
Oggi h: 07:50 nuvoloso Nuvoloso 24 18 69 1015 10 E/NE 13
Oggi h: 07:20 nuvoloso Nuvoloso 23 18 73 1015 10 E/NE 13
Oggi h: 06:50 nuvoloso Nuvoloso 23 18 73 1014 10 NE 11.1
Oggi h: 06:20 nuvoloso Nuvoloso 23 19 78 1014 10 N 3.7
Oggi h: 05:50 poco_nuvoloso Poco Nuvoloso 23 18 73 1014 10 N 3.7
Oggi h: 05:20 sereno Sereno 23 18 73 1015 10 N 5.5
Oggi h: 04:50 sereno Sereno 23 18 73 1015 10 E/NE 9.3
Oggi h: 04:20 sereno Sereno 23 18 73 1015 10 NE 9.3
Oggi h: 03:50 sereno Sereno 23 18 73 1015 10 NE 7.4
Oggi h: 03:20 sereno Sereno 23 19 78 1015 10 N 5.5
Oggi h: 02:50 sereno Sereno 23 19 78 1015 10 N 5.5
Oggi h: 02:20 sereno Sereno 24 19 73 1015 10 N 3.7
Oggi h: 01:50 sereno Sereno 24 19 73 1015 10 N 3.7
Oggi h: 01:20 sereno Sereno 24 19 73 1015 10 N 5.5
Oggi h: 00:50 sereno Sereno 24 19 73 1015 10 N 5.5
Oggi h: 00:20 sereno Sereno 24 20 78 1015 10 N 5.5
Ieri h: 23:50 sereno Sereno 24 20 78 1015 10 N 5.5
Ieri h: 23:20 sereno Sereno 25 20 73 1015 10 N 3.7
Ieri h: 22:50 sereno Sereno 25 20 73 1015 10 N 5.5
Ieri h: 22:20 sereno Sereno 25 20 73 1015 10 N 3.7
Ieri h: 21:50 sereno Sereno 25 20 73 1014 10 N/NE 7.4
Ieri h: 21:20 sereno Sereno 26 21 73 1014 10 N 3.7
Ieri h: 20:50 sereno Sereno 26 21 73 1014 10 N 5.5